Hourly Weather Wabal

Today, 10 July, Friday

Time Temperature Precipitation Wind Pressure Humidity
00:00 +25°C° 0 mm 1 mps 750 mmHg 91%
01:00 +24°C° 0 mm 1 mps 750 mmHg 91%
02:00 +24°C° 0 mm 1 mps 750 mmHg 90%
03:00 +24°C° 0 mm 1 mps 750 mmHg 90%
04:00 +22°C° 0 mm 0 mps 750 mmHg 90%
05:00 +22°C° 0 mm 0 mps 750 mmHg 89%
06:00 +22°C° 0 mm 0 mps 750 mmHg 89%
07:00 +22°C° 0 mm 0 mps 750 mmHg 88%
08:00 +27°C° 0 mm 1 mps 750 mmHg 78%
09:00 +29°C° 0 mm 1 mps 750 mmHg 67%
10:00 +32°C° 0 mm 1 mps 750 mmHg 56%
11:00 +34°C° 0 mm 1 mps 749 mmHg 51%
12:00 +35°C° 0 mm 1 mps 749 mmHg 46%
13:00 +37°C° 0 mm 1 mps 748 mmHg 40%
14:00 +37°C° 0 mm 1 mps 748 mmHg 41%
15:00 +36°C° 0 mm 1 mps 748 mmHg 42%
16:00 +36°C° 0 mm 1 mps 747 mmHg 43%
17:00 +33°C° 0.1 mm 1 mps 748 mmHg 56%
18:00 +31°C° 0.1 mm 1 mps 748 mmHg 68%
19:00 +26°C° 0.1 mm 0 mps 749 mmHg 81%
20:00 +25°C° 0.3 mm 0 mps 749 mmHg 85%
21:00 +26°C° 0.3 mm 1 mps 750 mmHg 88%
22:00 +26°C° 0.3 mm 1 mps 750 mmHg 92%
23:00 +25°C° 0.1 mm 1 mps 750 mmHg 93%

Tomorrow, 11 July, Saturday

Time Temperature Precipitation Wind Pressure Humidity
00:00 +23°C° 0.1 mm 0 mps 750 mmHg 94%
01:00 +23°C° 0.1 mm 0 mps 750 mmHg 94%
02:00 +23°C° 0.5 mm 0 mps 749 mmHg 95%
03:00 +23°C° 0.5 mm 0 mps 749 mmHg 95%
04:00 +23°C° 0.5 mm 0 mps 749 mmHg 95%
05:00 +22°C° 0.7 mm 0 mps 749 mmHg 96%
06:00 +22°C° 0.7 mm 0 mps 750 mmHg 97%
07:00 +22°C° 0.7 mm 0 mps 750 mmHg 98%
08:00 +23°C° 0.3 mm 0 mps 750 mmHg 97%
09:00 +23°C° 0.3 mm 0 mps 750 mmHg 96%
10:00 +24°C° 0.3 mm 0 mps 750 mmHg 95%
11:00 +26°C° 0.1 mm 0 mps 750 mmHg 85%
12:00 +28°C° 0.1 mm 0 mps 749 mmHg 76%
13:00 +30°C° 0.1 mm 0 mps 749 mmHg 66%
14:00 +30°C° 0.3 mm 0 mps 748 mmHg 64%
15:00 +31°C° 0.3 mm 0 mps 748 mmHg 62%
16:00 +31°C° 0.3 mm 0 mps 747 mmHg 60%
17:00 +29°C° 0.7 mm 0 mps 748 mmHg 70%
18:00 +27°C° 0.7 mm 0 mps 748 mmHg 81%
19:00 +25°C° 0.7 mm 0 mps 749 mmHg 91%
20:00 +24°C° 1.8 mm 0 mps 749 mmHg 93%
21:00 +24°C° 1.8 mm 0 mps 750 mmHg 95%
22:00 +25°C° 1.8 mm 1 mps 750 mmHg 98%
23:00 +25°C° 0.5 mm 1 mps 750 mmHg 98%

Day after tomorrow, 12 July, Sunday

Time Temperature Precipitation Wind Pressure Humidity
00:00 +25°C° 0.5 mm 1 mps 750 mmHg 98%
01:00 +25°C° 0.5 mm 1 mps 750 mmHg 98%
02:00 +25°C° 0.1 mm 1 mps 750 mmHg 98%
03:00 +25°C° 0.1 mm 1 mps 749 mmHg 98%
04:00 +24°C° 0.1 mm 1 mps 749 mmHg 98%
05:00 +24°C° 0 mm 1 mps 749 mmHg 97%
06:00 +22°C° 0 mm 0 mps 750 mmHg 97%
07:00 +22°C° 0 mm 0 mps 750 mmHg 96%
08:00 +24°C° 0 mm 0 mps 750 mmHg 86%
09:00 +27°C° 0 mm 0 mps 750 mmHg 75%
10:00 +29°C° 0 mm 0 mps 750 mmHg 65%
11:00 +31°C° 0.1 mm 0 mps 750 mmHg 59%
12:00 +32°C° 0.1 mm 0 mps 749 mmHg 54%
13:00 +36°C° 0.1 mm 1 mps 748 mmHg 49%
14:00 +35°C° 0.1 mm 1 mps 748 mmHg 50%
15:00 +35°C° 0.1 mm 1 mps 748 mmHg 51%
16:00 +34°C° 0.1 mm 1 mps 747 mmHg 53%
17:00 +32°C° 0.4 mm 1 mps 748 mmHg 66%
18:00 +29°C° 0.4 mm 1 mps 748 mmHg 80%
19:00 +24°C° 0.4 mm 0 mps 749 mmHg 93%
20:00 +24°C° 0.1 mm 0 mps 749 mmHg 94%
21:00 +24°C° 0.1 mm 0 mps 750 mmHg 95%
22:00 +23°C° 0.1 mm 0 mps 751 mmHg 96%
23:00 +23°C° 0.3 mm 0 mps 751 mmHg 97%

13 July, Monday

Time Temperature Precipitation Wind Pressure Humidity
00:00 +23°C° 0.3 mm 0 mps 750 mmHg 97%
01:00 +23°C° 0.3 mm 0 mps 750 mmHg 98%
02:00 +22°C° 0 mm 0 mps 750 mmHg 98%
03:00 +22°C° 0 mm 0 mps 750 mmHg 97%
04:00 +24°C° 0 mm 1 mps 750 mmHg 97%
05:00 +24°C° 0 mm 1 mps 750 mmHg 97%
06:00 +24°C° 0 mm 1 mps 751 mmHg 97%
07:00 +24°C° 0 mm 1 mps 751 mmHg 97%
08:00 +26°C° 0 mm 1 mps 751 mmHg 87%
09:00 +28°C° 0 mm 1 mps 751 mmHg 77%
10:00 +31°C° 0 mm 1 mps 751 mmHg 68%
11:00 +32°C° 0 mm 1 mps 750 mmHg 59%
12:00 +34°C° 0 mm 1 mps 750 mmHg 51%
13:00 +36°C° 0 mm 1 mps 749 mmHg 43%
14:00 +36°C° 0 mm 1 mps 749 mmHg 43%
15:00 +34°C° 0 mm 0 mps 748 mmHg 42%
16:00 +34°C° 0 mm 0 mps 748 mmHg 41%
17:00 +31°C° 0 mm 0 mps 748 mmHg 54%
18:00 +28°C° 0 mm 0 mps 749 mmHg 67%
19:00 +27°C° 0 mm 1 mps 750 mmHg 80%
20:00 +27°C° 0 mm 1 mps 750 mmHg 83%
21:00 +26°C° 0 mm 1 mps 751 mmHg 87%
22:00 +25°C° 0 mm 1 mps 752 mmHg 90%
23:00 +25°C° 0 mm 1 mps 751 mmHg 91%

14 July, Tuesday

Time Temperature Precipitation Wind Pressure Humidity
00:00 +25°C° 0 mm 1 mps 751 mmHg 91%
01:00 +25°C° 0 mm 1 mps 751 mmHg 92%
02:00 +24°C° 0 mm 1 mps 751 mmHg 92%
03:00 +24°C° 0 mm 1 mps 750 mmHg 92%
04:00 +24°C° 0 mm 1 mps 750 mmHg 92%
05:00 +24°C° 0 mm 1 mps 750 mmHg 92%
06:00 +24°C° 0 mm 1 mps 751 mmHg 91%
07:00 +24°C° 0 mm 1 mps 751 mmHg 90%
08:00 +26°C° 0 mm 1 mps 751 mmHg 81%
09:00 +29°C° 0 mm 1 mps 751 mmHg 72%
10:00 +31°C° 0 mm 1 mps 751 mmHg 63%
11:00 +33°C° 0 mm 1 mps 750 mmHg 57%
12:00 +34°C° 0 mm 1 mps 749 mmHg 50%
13:00 +34°C° 0 mm 0 mps 749 mmHg 43%
14:00 +34°C° 0 mm 0 mps 748 mmHg 42%
15:00 +34°C° 0 mm 0 mps 748 mmHg 42%
16:00 +34°C° 0 mm 0 mps 748 mmHg 41%
17:00 +31°C° 0 mm 0 mps 748 mmHg 54%
18:00 +28°C° 0 mm 0 mps 749 mmHg 67%
19:00 +26°C° 0 mm 0 mps 749 mmHg 80%
20:00 +25°C° 0 mm 0 mps 750 mmHg 82%
21:00 +24°C° 0 mm 0 mps 750 mmHg 84%
22:00 +24°C° 0 mm 0 mps 751 mmHg 86%
23:00 +23°C° 0 mm 0 mps 751 mmHg 87%

15 July, Wednesday

Time Temperature Precipitation Wind Pressure Humidity
00:00 +23°C° 0 mm 0 mps 750 mmHg 88%
01:00 +23°C° 0 mm 0 mps 750 mmHg 90%
02:00 +23°C° 0 mm 0 mps 750 mmHg 90%
03:00 +23°C° 0 mm 0 mps 750 mmHg 90%
04:00 +22°C° 0 mm 0 mps 749 mmHg 90%
05:00 +23°C° 0 mm 0 mps 750 mmHg 89%
06:00 +23°C° 0 mm 0 mps 750 mmHg 89%
07:00 +23°C° 0 mm 0 mps 751 mmHg 89%
08:00 +25°C° 0 mm 0 mps 751 mmHg 80%
09:00 +27°C° 0 mm 0 mps 751 mmHg 71%
10:00 +30°C° 0 mm 0 mps 750 mmHg 63%
11:00 +31°C° 0.1 mm 0 mps 750 mmHg 57%
12:00 +33°C° 0.1 mm 0 mps 749 mmHg 52%
13:00 +34°C° 0.1 mm 0 mps 748 mmHg 47%
14:00 +36°C° 0.1 mm 1 mps 748 mmHg 48%
15:00 +35°C° 0.1 mm 1 mps 747 mmHg 50%
16:00 +35°C° 0.1 mm 1 mps 747 mmHg 51%
17:00 +32°C° 0.8 mm 1 mps 747 mmHg 65%
18:00 +29°C° 0.8 mm 1 mps 748 mmHg 79%
19:00 +25°C° 0.8 mm 0 mps 749 mmHg 93%
20:00 +24°C° 0.8 mm 0 mps 749 mmHg 94%
21:00 +24°C° 0.8 mm 0 mps 750 mmHg 96%
22:00 +24°C° 0.8 mm 0 mps 750 mmHg 97%
23:00 +23°C° 0.6 mm 0 mps 750 mmHg 97%
Show more